This is the latest recevied weather packets stored in our database for station/object DM4XI-13. If no packets are shown the sender has not sent any weather packets the latest 10 day(s).
| Time | Temp. | Humidity | Pressure | Rain* | Wind** | Luminosity | Snow |
|---|---|---|---|---|---|---|---|
| 1778127771 | 9.44° C | 93% | 1008.2 hPa | 0 mm | 1.34 m/s, 207° | 18 W/m² | - |
| 1778127711 | 9.44° C | 94% | 1008.2 hPa | 0 mm | 0.45 m/s, 257° | 17 W/m² | - |
| 1778127650 | 9.44° C | 94% | 1008.2 hPa | 0 mm | 0.45 m/s, 189° | 17 W/m² | - |
| 1778127588 | 9.44° C | 93% | 1008 hPa | 0 mm | 0 m/s | 16 W/m² | - |
| 1778127527 | 9.44° C | 93% | 1008.2 hPa | 0 mm | 0 m/s | 15 W/m² | - |
| 1778127467 | 9.44° C | 93% | 1008.2 hPa | 0 mm | 1.34 m/s, 173° | 14 W/m² | - |
| 1778127406 | 9.44° C | 93% | 1008.1 hPa | 0 mm | 0 m/s | 13 W/m² | - |
| 1778127344 | 9.44° C | 93% | 1008.2 hPa | 0 mm | 0.89 m/s, 195° | 11 W/m² | - |
| 1778127284 | 9.44° C | 93% | 1008 hPa | 0 mm | 1.34 m/s, 180° | 10 W/m² | - |
| 1778127223 | 9.44° C | 93% | 1008 hPa | 0 mm | 0.89 m/s, 187° | 8 W/m² | - |
| 1778127161 | 9.44° C | 94% | 1008.1 hPa | 0 mm | 1.34 m/s, 179° | 7 W/m² | - |
| 1778127100 | 9.44° C | 94% | 1008 hPa | 0 mm | 0.89 m/s, 179° | 7 W/m² | - |
| 1778127039 | 9.44° C | 94% | 1008.1 hPa | 0 mm | 0 m/s | 8 W/m² | - |
| 1778126979 | 9.44° C | 94% | 1007.9 hPa | 0 mm | 0.45 m/s, 174° | 9 W/m² | - |
| 1778126918 | 9.44° C | 94% | 1008.1 hPa | 0 mm | 0.45 m/s, 177° | 9 W/m² | - |
| 1778126856 | 9.44° C | 94% | 1008.1 hPa | 0 mm | 0.45 m/s, 185° | 8 W/m² | - |
| 1778126796 | 9.44° C | 94% | 1008 hPa | 0 mm | 0.89 m/s, 192° | 7 W/m² | - |
| 1778126734 | 9.44° C | 93% | 1007.9 hPa | 0 mm | 0.89 m/s, 183° | 7 W/m² | - |
| 1778126673 | 9.44° C | 94% | 1008 hPa | 0 mm | 0.89 m/s, 191° | 7 W/m² | - |
| 1778126612 | 9.44° C | 94% | 1008 hPa | 0 mm | 0.89 m/s, 172° | 7 W/m² | - |
| 1778126551 | 9.44° C | 94% | 1008 hPa | 0 mm | 0.89 m/s, 195° | 7 W/m² | - |
| 1778126491 | 9.44° C | 94% | 1007.9 hPa | 0 mm | 0.89 m/s, 198° | 7 W/m² | - |
| 1778126429 | 9.44° C | 94% | 1008 hPa | 0 mm | 0.89 m/s, 186° | 6 W/m² | - |
| 1778126369 | 9.44° C | 94% | 1007.9 hPa | 0 mm | 0 m/s | 6 W/m² | - |
| 1778126307 | 9.44° C | 94% | 1007.9 hPa | 0 mm | 0.89 m/s, 183° | 5 W/m² | - |
* Rain latest hour (hover to see other rain measurements)
** Current wind speed in m/s (hover to see current wind gust speed)